Home   Weather   Harrisburg   Past weeks

Flag for USA Past Weather in Harrisburg, Pennsylvania, USA — Yesterday and Last 2 Weeks

Now
66 °F

Mostly cloudy.


Feels Like: 66 °F
Forecast: 52 / 72 °F
Wind: 5 mph from Southeast

Location: Capital City Airport

Current Time: Feb 23, 2017 at 10:35:16 pm

Latest Report: Feb 23, 2017 at 9:56 pm


Visibility: 10 mi

Pressure: 29.85 "Hg

Humidity: 59%

Dew Point: 51 °F

Location of HarrisburgLocation

Past Weather in Harrisburg — Graph

°F

Harrisburg Temperature Yesterday

Maximum temperature yesterday: 64 °F (at 3:56 pm)
Minimum temperature yesterday: 43 °F (at 5:56 am)
Average temperature yesterday: 53 °F

High & Low Weather Summary for the Past Weeks

 TemperatureHumidityPressure
High78 °F (Feb 23, 3:56 pm)93% (Feb 12, 8:03 pm)30.38 "Hg (Feb 12, 8:03 pm)
Low22 °F (Feb 9, 9:56 pm)19% (Feb 18, 2:56 pm)29.44 "Hg (Feb 15, 12:56 pm)
Average41 °F53%29.92 "Hg
* Reported Feb 8 8:56 pm — Feb 23 8:56 pm, Harrisburg, Weather by CustomWeather, © 2017

Note: Actual official high and low records may vary slightly from our data, if they occured in-between our weather recording intervals... More about our weather records

Advertising

Harrisburg Weather History for the Previous 24 Hours

Scroll right to see more
 ConditionsComfort  
Time TempWeatherWind HumidityBarometerVisibility
8:56 pm
Thu, Feb 23
70 °FMostly cloudy.5 mph51%29.85 "Hg10 mi
7:56 pm70 °FPassing clouds.10 mph51%29.82 "Hg10 mi
6:56 pm74 °FPassing clouds.9 mph41%29.81 "Hg10 mi
5:56 pm74 °FPassing clouds.8 mph41%29.80 "Hg10 mi
4:56 pm75 °FPassing clouds.9 mph42%29.78 "Hg10 mi
3:56 pm78 °FPartly sunny.12 mph37%29.76 "Hg10 mi
2:56 pm76 °FPartly sunny.9 mph40%29.77 "Hg10 mi
1:56 pm73 °FSunny.3 mph46%29.78 "Hg10 mi
12:56 pm68 °FPassing clouds.No wind55%29.82 "Hg10 mi
11:56 am62 °FPartly sunny.3 mph65%29.86 "Hg10 mi
10:56 am56 °FScattered clouds.5 mph75%29.89 "Hg5 mi
10:28 am54 °FScattered clouds.5 mph80%29.89 "Hg3 mi
9:56 am50 °FFog.No wind86%29.90 "Hg1 mi
9:32 am48 °FFog.No wind93%29.90 "Hg1 mi
9:03 am47 °FFog.No wind93%29.89 "Hg0 mi
8:30 am47 °FLow clouds.3 mph86%29.89 "Hg2 mi
7:56 am46 °FLow clouds.No wind83%29.90 "Hg4 mi
7:06 am44 °FPartly sunny.No wind85%29.89 "Hg4 mi
6:56 am44 °FScattered clouds.No wind85%29.89 "Hg4 mi
5:56 am45 °FOvercast.3 mph82%29.88 "Hg6 mi
4:56 am43 °FFog.No wind86%29.87 "Hg5 mi
3:56 am46 °FOvercast.3 mph83%29.86 "Hg8 mi
2:56 am44 °FPassing clouds.No wind82%29.86 "Hg9 mi
1:56 am42 °FClear.No wind85%29.88 "Hg8 mi
11:56 pm
Wed, Feb 22
46 °FClear.3 mph77%29.89 "Hg10 mi
10:56 pm49 °FClear.No wind71%29.90 "Hg10 mi
Weather by CustomWeather, © 2017

See weather overviewHow to use our weather pages